Weather observations for the past three days for
Milledgeville, Baldwin County Airport
Metric (Imperial)
Date Time (edt) Wind (kph) Vis. (km) Weather Sky Cond. Temperature (ºC) Relative Humidity Wind Chill (°C) Heat Index (°C) Pressure Precipitation (cm)
Air Dwpt 6 hour altimeter (cm) sea level (mb) 1 hr 3 hr 6 hr
Max. Min.
04 22:35 Calm 16.09 Fair CLR 16 10 68% 76.17 0.0
04 22:15 Calm 16.09 Fair CLR 17 8 56% 76.17 0.0
04 21:55 Calm 16.09 Fair CLR 17 7 52% 76.17 0.0
04 21:35 Calm 16.09 Fair CLR 18 8 52% 76.15 0.0
04 21:15 Calm 16.09 Fair CLR 19 7 46% 76.12 0.0
04 20:55 Calm 16.09 Fair CLR 20 7 43% 76.12 0.0
04 20:35 Calm 16.09 Fair CLR 21 7 40% 76.1 0.0
04 20:15 Calm 16.09 Fair CLR 22 6 36% 76.1 0.0
04 19:55 Vrbl 6 16.09 Fair CLR 24 5 29% 25 76.1 0.0
04 19:35 Vrbl 7 16.09 Fair CLR 24 6 31% 25 76.1 0.0
04 19:15 Calm 16.09 Fair CLR 25 6 30% 25 76.1 0.0
04 18:55 Vrbl 7 16.09 Fair CLR 25 6 30% 25 76.1 0.0
04 18:35 Vrbl 7 16.09 Fair CLR 25 6 30% 25 76.1 0.0
04 18:15 Vrbl 9 16.09 Fair CLR 26 6 28% 26 76.07 0.0
04 17:55 Calm 16.09 Fair CLR 27 4 23% 26 76.07 0.0
04 17:35 Calm 16.09 Fair CLR 26 5 26% 26 76.1 0.0
04 17:15 Calm 16.09 Fair CLR 27 5 24% 26 76.07 0.0
04 16:55 Vrbl 9 16.09 Fair CLR 26 5 26% 26 76.1 0.0
04 16:35 Vrbl 11 G 20 14.48 Fair CLR 26 4 24% 26 76.1 0.0
04 16:15 Vrbl 9 16.09 Fair CLR 26 6 28% 26 76.12 0.0
04 15:55 Calm 16.09 Fair CLR 26 4 24% 26 76.12 0.0
04 15:35 E 7 16.09 Fair CLR 26 5 26% 26 76.15 0.0
04 15:15 Vrbl 7 16.09 Fair CLR 26 4 24% 26 76.17 0.0
04 14:55 Vrbl 6 14.48 Fair CLR 26 4 24% 26 76.2 0.0
04 14:35 NE 9 16.09 Fair CLR 25 4 26% 25 76.23 0.0
04 14:15 E 11 16.09 Fair CLR 25 3 24% 25 76.23 0.0
04 13:55 E 7 16.09 Fair CLR 25 3 24% 25 76.25 0.0
04 13:35 NE 11 16.09 Fair CLR 25 2 22% 25 76.25 0.0
04 13:15 N 13 16.09 Fair CLR 24 3 25% 25 76.28 0.0
04 12:55 N 11 G 20 16.09 Fair CLR 24 3 25% 25 76.3 0.0
04 12:35 NW 9 16.09 Fair CLR 24 2 24% 25 76.33 0.0
04 12:15 Vrbl 6 16.09 Fair CLR 23 3 27% 76.33 0.0
04 11:55 W 13 G 28 16.09 Fair CLR 23 3 27% 76.35 0.0
04 11:35 NW 9 G 19 16.09 Fair CLR 22 4 31% 76.38 0.0
04 11:15 W 13 16.09 Fair CLR 22 4 31% 76.38 0.0
04 10:55 W 9 14.48 Fair CLR 21 6 38% 76.38 0.0
04 10:35 Calm 12.87 Fair CLR 20 10 53% 76.38 0.0
04 10:15 Calm 16.09 Fair CLR 19 10 56% 76.38 0.0
04 09:55 Calm 16.09 Fair CLR 17 11 68% 76.4 0.0
04 09:35 Calm 16.09 Fair CLR 16 12 77% 76.4 0.0
04 09:15 Calm 16.09 Fair CLR 15 11 77% 76.4 0.0
04 08:55 Calm 16.09 Fair CLR 14 10 77% 76.4 0.0
04 08:35 Calm 16.09 Fair CLR 13 10 82% 76.4 0.0
04 07:55 Calm 16.09 Fair CLR 10 9 94% 76.38 0.0
04 07:35 Calm 16.09 Fair CLR 9 8 94% 76.38 0.0
04 07:15 Calm 16.09 Fair CLR 9 8 94% 76.35 0.0
04 06:55 Calm 16.09 Fair CLR 8 7 93% 76.35 0.0
04 06:35 Calm 16.09 Fair CLR 8 8 100% 76.35 0.0
04 06:15 Calm 16.09 Fair CLR 9 8 94% 76.35 0.0
04 05:55 Calm 16.09 Fair CLR 9 8 94% 76.35 0.0
04 05:35 Calm 16.09 Fair CLR 8 7 93% 76.35 0.0
04 05:15 W 9 16.09 Fair CLR 9 7 87% 8 76.35 0.0
04 04:55 Calm 16.09 Fair CLR 8 7 93% 76.35 0.0
04 04:35 Calm 16.09 Fair CLR 9 7 87% 76.35 0.0
04 04:15 Calm 16.09 Fair CLR 9 7 87% 76.35 0.0
04 03:55 Calm 16.09 Fair CLR 9 7 87% 76.35 0.0
04 03:35 W 6 16.09 Fair CLR 9 7 87% 76.33 0.0
04 03:15 Calm 16.09 Fair CLR 9 7 87% 76.33 0.0
04 02:55 Calm 16.09 Fair CLR 10 8 88% 76.33 0.0
04 02:35 Calm 16.09 Fair CLR 10 7 82% 76.35 0.0
04 02:15 Calm 16.09 Fair CLR 11 7 77% 76.35 0.0
04 01:55 Calm 16.09 Fair CLR 11 7 77% 76.38 0.0
04 01:35 Calm 16.09 Fair CLR 11 7 77% 76.4 0.0
04 01:15 Calm 16.09 Fair CLR 11 8 82% 76.38 0.0
04 00:55 Calm 16.09 Fair CLR 11 8 82% 76.38 0.0
04 00:35 Calm 16.09 Fair CLR 11 8 82% 76.38 0.0
04 00:15 Calm 16.09 Fair CLR 11 8 82% 76.38 0.0
03 23:55 Calm 16.09 Fair CLR 12 8 77% 76.38 0.0
03 23:35 Calm 16.09 Fair CLR 12 8 77% 76.38 0.0
03 23:15 Calm 16.09 Fair CLR 12 8 77% 76.35 0.0
03 22:55 Calm 16.09 Fair CLR 13 8 72% 76.35 0.0
03 22:35 Calm 16.09 Fair CLR 13 8 72% 76.35 0.0
03 22:15 Calm 16.09 Fair CLR 14 7 63% 76.33 0.0
03 21:55 Calm 16.09 Fair CLR 15 7 59% 76.33 0.0
03 21:35 Calm 16.09 Fair CLR 15 6 55% 76.3 0.0
03 21:15 Calm 16.09 Fair CLR 16 6 52% 76.3 0.0
03 20:55 Calm 16.09 Fair CLR 17 6 49% 76.28 0.0
03 20:35 Calm 16.09 Fair CLR 18 6 46% 76.25 0.0
03 20:15 Calm 16.09 Fair CLR 19 5 40% 76.25 0.0
03 19:55 Calm 16.09 Fair CLR 20 4 35% 76.25 0.0
03 19:35 W 6 16.09 Fair CLR 21 2 29% 76.25 0.0
03 19:15 W 13 16.09 Fair CLR 22 2 27% 76.25 0.0
03 18:55 W 9 16.09 Fair CLR 23 3 27% 76.25 0.0
03 18:35 W 11 G 20 16.09 Fair CLR 23 2 25% 76.25 0.0
03 18:15 W 13 16.09 Fair CLR 23 2 25% 76.25 0.0
03 17:55 Calm 16.09 Fair CLR 23 2 25% 76.28 0.0
03 17:35 Vrbl 7 G 19 16.09 Fair CLR 23 2 25% 76.28 0.0
03 17:15 W 11 16.09 Fair CLR 23 2 25% 76.28 0.0
03 16:55 W 15 16.09 Fair CLR 23 2 25% 76.28 0.0
03 16:35 W 13 G 26 16.09 Fair CLR 23 2 25% 76.3 0.0
03 16:15 W 9 G 22 16.09 Fair CLR 23 2 25% 76.3 0.0
03 15:55 Vrbl 6 G 24 16.09 Fair CLR 23 3 27% 76.33 0.0
03 15:35 W 15 16.09 Fair CLR 23 2 25% 76.35 0.0
03 15:15 Vrbl 11 G 24 16.09 Fair CLR 23 2 25% 76.38 0.0
03 14:55 SW 7 G 22 16.09 Fair CLR 22 0 23% 76.4 0.0
03 14:35 NW 19 16.09 Fair CLR 23 1 23% 76.43 0.0
03 14:15 W 19 16.09 Fair CLR 22 1 25% 76.45 0.0
03 13:55 W 15 G 26 16.09 Fair CLR 21 2 29% 76.45 0.0
03 13:35 Vrbl 6 16.09 Fair CLR 21 2 29% 76.48 0.0
03 13:15 W 13 G 26 16.09 Fair CLR 21 3 31% 76.5 0.0
03 12:55 Calm 16.09 Fair CLR 21 2 29% 76.5 0.0
03 12:35 Vrbl 11 G 24 16.09 Fair CLR 20 2 30% 76.53 0.0
03 12:15 W 17 16.09 Fair CLR 20 1 28% 76.56 0.0
03 11:55 W 15 16.09 Fair CLR 20 3 33% 76.56 0.0
03 11:35 NW 11 16.09 Fair CLR 18 4 40% 76.56 0.0
03 11:15 N 9 16.09 Fair CLR 18 5 43% 76.56 0.0
03 10:55 Calm 16.09 Fair CLR 17 6 49% 76.56 0.0
03 10:35 Calm 16.09 Fair CLR 16 5 48% 76.56 0.0
03 10:15 Calm 16.09 Fair CLR 15 6 55% 76.56 0.0
03 09:55 N 7 16.09 Fair CLR 16 5 48% 76.56 0.0
03 09:35 Vrbl 7 16.09 Fair CLR 14 5 55% 76.56 0.0
03 09:15 N 7 16.09 Fair CLR 14 6 59% 76.53 0.0
03 08:55 NW 6 16.09 Fair CLR 13 7 67% 76.53 0.0
03 08:35 Calm 16.09 Fair CLR 12 8 77% 76.5 0.0
03 08:15 Calm 16.09 Fair CLR 11 8 82% 76.5 0.0
03 07:55 Calm 16.09 Fair CLR 9 8 94% 76.48 0.0
03 07:35 Calm 16.09 Fair CLR 8 7 93% 76.45 0.0
03 07:15 Calm 16.09 Fair CLR 7 7 100% 76.45 0.0
03 06:35 Calm 16.09 Fair CLR 7 7 100% 76.43 0.0
03 06:15 Calm 16.09 Fair CLR 7 6 93% 76.4 0.0
03 05:55 W 7 16.09 Fair CLR 7 7 100% 6 76.4 0.0
03 05:35 Calm 16.09 Fair CLR 7 6 93% 76.38 0.0
03 05:15 Calm 16.09 Fair CLR 8 7 93% 76.38 0.0
03 04:55 W 7 16.09 Fair CLR 8 7 93% 7 76.38 0.0
03 04:35 Calm 16.09 Fair CLR 8 7 93% 76.38 0.0
03 04:15 Calm 16.09 Fair CLR 8 7 93% 76.35 0.0
03 03:55 Calm 16.09 Fair CLR 8 6 87% 76.33 0.0
03 03:35 W 6 16.09 Fair CLR 8 6 87% 76.33 0.0
03 03:15 Calm 16.09 Fair CLR 9 6 82% 76.3 0.0
03 02:55 Calm 16.09 Fair CLR 9 7 87% 76.28 0.0
03 02:35 Calm 16.09 Fair CLR 9 7 87% 76.28 0.0
03 02:15 Calm 16.09 Fair CLR 10 6 76% 76.28 0.0
03 01:55 Calm 16.09 Fair CLR 10 6 76% 76.28 0.0
03 01:35 Calm 16.09 Fair CLR 10 7 82% 76.28 0.0
03 01:15 NW 6 16.09 Fair CLR 11 7 77% 76.28 0.0
03 00:55 Calm 16.09 Fair CLR 10 7 82% 76.25 0.0
03 00:35 Calm 16.09 Fair CLR 11 7 77% 76.25 0.0
03 00:15 Calm 16.09 Fair CLR 11 7 77% 76.25 0.0
02 23:55 W 6 16.09 Fair CLR 12 8 77% 76.23 0.0
02 23:35 Calm 16.09 Fair CLR 12 7 72% 76.2 0.0
02 23:15 Calm 16.09 Fair CLR 14 7 63% 76.2 0.0
02 22:55 Calm 16.09 Fair CLR 16 9 63% 76.2 0.0
02 22:35 Vrbl 7 16.09 Fair CLR 16 4 45% 76.17 0.0
02 22:15 NW 11 16.09 A Few Clouds FEW080 16 3 42% 76.15 0.0
02 21:55 NW 15 G 28 16.09 Partly Cloudy SCT080 17 3 39% 76.12 0.0
02 21:35 NW 17 16.09 Mostly Cloudy BKN080 18 3 37% 76.07 0.0
02 21:15 W 17 16.09 Overcast OVC075 18 5 43% 76.05 0.0
02 20:55 W 11 16.09 Mostly Cloudy BKN070 18 6 46% 76 0.0
02 20:35 W 15 G 24 16.09 A Few Clouds FEW070 19 5 40% 75.97 0.0
02 20:15 W 13 G 22 16.09 Fair CLR 19 5 40% 75.95 0.0
02 19:55 NW 20 G 31 16.09 A Few Clouds FEW070 21 5 35% 75.9 0.0
02 19:35 NW 24 G 37 16.09 Partly Cloudy SCT065 21 7 40% 75.87 0.0
02 19:15 W 17 16.09 Fair CLR 22 9 44% 75.84 0.0
02 18:55 W 19 16.09 Fair CLR 23 9 41% 75.82 0.0
02 18:35 W 13 16.09 A Few Clouds FEW060 FEW080 22 10 47% 75.82 0.0
02 18:15 NW 7 16.09 Partly Cloudy FEW055 FEW070 SCT080 22 11 50% 75.82 0.0
02 17:35 Calm 16.09 A Few Clouds FEW085 22 11 50% 75.79 0.0
02 17:15 Calm 16.09 Partly Cloudy FEW070 SCT090 22 11 50% 75.79 0.0
02 16:55 Calm 16.09 Mostly Cloudy SCT070 BKN085 22 11 50% 75.79 0.0
02 16:35 Vrbl 7 16.09 Partly Cloudy FEW070 SCT085 22 11 50% 75.82 0.0
02 16:15 N 9 16.09 Mostly Cloudy FEW040 FEW055 BKN065 22 11 50% 75.82 0.0
02 15:55 Vrbl 7 16.09 Mostly Cloudy FEW050 BKN070 BKN090 21 10 50% 75.82 0.0
02 15:35 N 6 16.09 A Few Clouds FEW070 FEW085 FEW100 22 11 50% 75.82 0.0
02 15:15 Vrbl 9 16.09 Mostly Cloudy SCT070 BKN085 BKN100 21 11 53% 75.84 0.0
02 14:55 Vrbl 7 16.09 Mostly Cloudy FEW070 SCT080 BKN100 21 12 57% 75.87 0.0
02 14:35 N 7 16.09 Mostly Cloudy SCT070 BKN085 21 12 57% 75.87 0.0
02 14:15 Vrbl 6 16.09 Mostly Cloudy FEW025 BKN065 BKN100 20 12 60% 75.9 0.0
02 13:55 E 7 16.09 Mostly Cloudy FEW034 SCT050 BKN060 20 13 64% 75.9 0.0
02 13:35 E 7 16.09 Overcast SCT034 SCT039 OVC090 19 13 68% 75.92 0.0
02 13:15 Calm 16.09 Overcast OVC085 18 13 73% 75.92 0.0
02 12:55 Vrbl 7 16.09 Overcast SCT017 SCT025 OVC080 18 14 78% 75.95 0.0
02 12:35 N 9 16.09 Overcast SCT017 SCT026 OVC075 17 13 77% 75.95 0.0
02 12:15 Vrbl 7 16.09 Overcast FEW015 OVC075 17 14 83% 75.95 0.0
02 11:55 Calm 16.09 Overcast OVC075 16 13 83% 75.92 0.0
02 11:35 Calm 16.09 Mostly Cloudy BKN075 BKN090 16 14 88% 75.9 0.0
02 11:15 W 7 14.48 Light Rain SCT075 16 15 94% 75.95 0.0
02 10:55 NW 7 16.09 Light Rain SCT070 16 15 94% 75.95 0.0
02 10:35 Calm 14.48 Light Rain FEW007 OVC070 15 14 94% 75.92 0.0
02 10:15 W 6 16.09 Overcast BKN075 OVC085 15 14 94% 75.97 0.0
02 09:55 Calm 16.09 Mostly Cloudy FEW004 BKN070 BKN085 15 14 94% 75.87 0.0
02 09:35 Calm 14.48 Light Drizzle SCT003 BKN070 15 14 94% 75.92 0.0
02 09:15 Calm 8.05 Light Rain Fog/Mist SCT002 OVC070 14 14 100% 75.95 0.0
02 08:55 Calm 14.48 Overcast OVC070 14 14 100% 75.97 0.0
02 08:35 Calm 16.09 Light Rain OVC065 14 14 100% 75.92 0.0
02 08:15 W 6 12.87 Light Rain BKN065 BKN080 BKN090 14 14 100% 75.95 0.0
02 07:55 Calm 12.87 Light Drizzle SCT060 SCT095 BKN110 14 13 94% 75.84 0.0
02 07:35 Calm 4.83 Light Rain Fog/Mist BKN055 OVC070 13 13 100% 75.9 0.0
02 07:15 W 7 8.05 Light Rain Fog/Mist BKN050 OVC070 13 13 100% 75.92 0.0
02 06:55 Vrbl 6 14.48 Light Rain FEW002 OVC050 13 13 100% 75.9 0.0
02 06:35 NW 7 16.09 Light Drizzle BKN002 OVC055 13 13 100% 75.84 0.0
02 06:15 Calm 12.87 Light Rain FEW002 OVC055 13 12 94% 75.84 0.0
02 05:55 Calm 16.09 Overcast SCT003 OVC055 13 12 94% 75.84 0.0
02 05:35 Calm 11.27 Light Rain BKN003 BKN041 OVC110 13 13 100% 75.84 0.0
02 05:15 Calm 8.05 Light Rain Fog/Mist FEW003 FEW041 SCT075 13 13 100% 75.87 0.0
02 04:55 Calm 6.44 Light Rain Fog/Mist FEW075 FEW110 13 13 100% 75.9 0.0
02 04:35 Calm 6.44 Light Rain Fog/Mist FEW039 FEW055 FEW065 13 12 94% 75.9 0.0
02 04:15 Calm 8.05 Light Rain Fog/Mist FEW060 FEW070 13 12 94% 75.9 0.0
02 03:55 Calm 11.27 Light Rain FEW041 SCT060 BKN070 13 13 100% 75.87 0.0
02 03:15 Calm 4.02 Rain Fog/Mist BKN055 13 12 94% 75.92 0.0
02 02:55 Calm 4.83 Light Rain Fog/Mist SCT055 BKN065 BKN080 14 13 94% 75.95 0.0
02 02:35 Calm 6.44 Light Rain Fog/Mist BKN055 OVC065 14 13 94% 75.97 0.0
02 02:15 Calm 8.05 Light Rain Fog/Mist BKN060 BKN075 14 14 100% 76 0.0
02 01:55 Calm 9.66 Light Rain Fog/Mist FEW038 FEW044 SCT075 14 14 100% 75.97 0.0
02 01:35 Calm 6.44 Light Rain Fog/Mist FEW041 SCT075 14 14 100% 75.95 0.0
02 01:15 S 6 8.05 Light Rain Fog/Mist CLR 14 14 100% 75.97 0.0
02 00:55 Calm 12.87 Light Rain FEW075 14 14 100% 75.97 0.0
02 00:35 Calm 14.48 Light Rain FEW055 SCT075 SCT110 15 14 94% 76 0.0
02 00:15 Calm 16.09 Light Rain FEW055 BKN075 BKN110 15 14 94% 76.02 0.0
01 23:55 Calm 16.09 Light Rain SCT060 BKN075 15 13 88% 76.02 0.0
01 23:35 W 7 16.09 Light Rain BKN060 BKN075 16 13 83% 76 0.0
01 23:15 Calm 16.09 Overcast SCT055 OVC070 17 12 73% 75.97 0.0
Date Time (edt) Wind (kph) Vis. (km) Weather Sky Cond. Air Dwpt Max. Min. Relative Humidity Wind Chill (°C) Heat Index (°C) altimeter (cm) sea level (mb) 1 hr 3 hr 6 hr
6 hour
Temperature (ºC) Pressure Precipitation (cm)